FW7092 Weather Reports


Display with metric or nautical units.
time (UTC)temp
F
wind
direction
speed
MPH
gust
MPH
rain 1hr
in
rain 24hr
in
rain mn
in
humidity
%
barometer
mb
20260905181015 75 101 3.0 6.0 0.00 0.06 0.06 88 1016.1
20260905180510 75 59 4.0 6.0 0.00 0.06 0.06 88 1016.1
20260905180005 75 88 3.0 6.0 0.00 0.06 0.06 87 1016.1
20260905175504 75 99 3.0 6.0 0.00 0.06 0.06 88 1016.0
20260905175000 75 88 5.0 8.0 0.00 0.06 0.06 88 1016.1
20260905174455 75 95 3.0 6.0 0.00 0.06 0.06 89 1016.2
20260905173951 75 34 5.0 8.0 0.00 0.06 0.06 89 1016.0
20260905173447 75 64 4.0 7.0 0.00 0.06 0.06 90 1016.1
20260905172942 75 64 3.0 3.0 0.00 0.06 0.06 90 1016.1
20260905172440 75 45 4.0 7.0 0.00 0.06 0.06 90 1015.9
20260905171936 75 29 3.0 7.0 0.00 0.06 0.06 90 1016.2
20260905171433 75 61 2.0 6.0 0.00 0.06 0.06 91 1016.3
20260905170929 75 41 1.0 6.0 0.00 0.06 0.06 91 1016.3
20260905170425 75 66 3.0 3.0 0.00 0.06 0.06 91 1016.2
20260905165924 75 51 2.0 5.0 0.00 0.06 0.06 91 1016.4
20260905165419 75 50 3.0 5.0 0.00 0.06 0.06 91 1016.4
20260905164914 75 76 3.0 5.0 0.00 0.06 0.06 90 1016.6
20260905164408 76 269 1.0 5.0 0.00 0.06 0.06 89 1016.5
20260905163904 76 124 3.0 6.0 0.00 0.06 0.06 88 1016.4
20260905163401 76 51 1.0 3.0 0.00 0.06 0.06 89 1016.2
20260905162856 76 131 4.0 6.0 0.00 0.06 0.06 89 1016.1
20260905162356 76 10 1.0 6.0 0.00 0.06 0.06 89 1016.2
20260905161851 77 102 3.0 5.0 0.00 0.06 0.06 89 1016.3
20260905161350 77 135 4.0 5.0 0.00 0.06 0.06 88 1016.2
20260905160849 78 48 3.0 3.0 0.00 0.06 0.06 87 1016.2
20260905160343 77 180 3.0 5.0 0.00 0.06 0.06 88 1016.2
20260905155843 77 76 3.0 6.0 0.00 0.06 0.06 89 1016.2
20260905155337 77 63 4.0 6.0 0.00 0.06 0.06 88 1016.2
20260905154836 77 151 1.0 5.0 0.00 0.06 0.06 88 1016.2
20260905154332 76 69 3.0 5.0 0.00 0.06 0.06 89 1016.2
20260905153827 77 176 0.0 5.0 0.00 0.06 0.06 89 1016.1
20260905153324 76 249 1.0 2.0 0.00 0.06 0.06 89 1016.0
20260905152823 77 304 2.0 3.0 0.00 0.06 0.06 87 1016.0
20260905152322 78 72 2.0 5.0 0.00 0.06 0.06 84 1016.0
20260905151818 78 5 2.0 3.0 0.00 0.06 0.06 83 1016.1
20260905151314 78 140 2.0 2.0 0.00 0.06 0.06 84 1016.1
20260905150814 78 239 0.0 3.0 0.00 0.06 0.06 83 1016.0
20260905150314 77 244 1.0 2.0 0.00 0.06 0.06 84 1016.0
20260905145811 76 26 2.0 3.0 0.00 0.06 0.06 85 1016.0
20260905145310 76 313 2.0 3.0 0.00 0.06 0.06 85 1015.8
20260905144809 77 73 3.0 3.0 0.00 0.06 0.06 87 1015.7
20260905144306 77 345 2.0 3.0 0.00 0.06 0.06 85 1015.7
20260905143804 76 151 2.0 3.0 0.00 0.06 0.06 84 1015.7
20260905143259 76 82 1.0 2.0 0.00 0.06 0.06 86 1015.7
20260905142757 76 151 1.0 1.0 0.00 0.06 0.06 87 1015.5
20260905142251 75 86 2.0 3.0 0.00 0.06 0.06 87 1015.5
20260905141748 75 66 1.0 2.0 0.00 0.06 0.06 89 1015.5
20260905141243 74 70 2.0 3.0 0.00 0.06 0.06 89 1015.6
20260905140738 73 79 1.0 2.0 0.00 0.06 0.06 89 1015.6
20260905140233 73 90 1.0 1.0 0.00 0.06 0.06 89 1015.7
20260905135732 73 205 0.0 1.0 0.00 0.06 0.06 90 1015.6
20260905135228 73 229 0.0 0.0 0.00 0.06 0.06 92 1015.5
20260905134727 72 245 0.0 1.0 0.00 0.06 0.06 93 1015.8
20260905134227 72 213 0.0 1.0 0.00 0.06 0.06 93 1015.7
20260905133722 72 219 0.0 0.0 0.00 0.06 0.06 94 1015.9
20260905133217 72 249 0.0 0.0 0.00 0.06 0.06 95 1015.7
20260905132716 71 272 1.0 2.0 0.00 0.06 0.06 96 1015.9
20260905132212 71 256 1.0 1.0 0.00 0.06 0.06 97 1016.1
20260905131706 70 233 1.0 2.0 0.00 0.06 0.06 97 1015.9
20260905131202 70 245 3.0 3.0 0.00 0.06 0.06 97 1015.8
20260905130656 70 235 1.0 3.0 0.00 0.06 0.06 98 1016.0
20260905130156 70 272 1.0 2.0 0.00 0.06 0.06 99 1015.9
20260905125650 70 223 0.0 2.0 0.00 0.06 0.06 99 1015.8
20260905125146 70 242 2.0 5.0 0.00 0.06 0.06 99 1015.7
20260905124642 69 244 2.0 5.0 0.00 0.06 0.06 99 1015.8
20260905124138 69 256 3.0 5.0 0.00 0.06 0.06 99 1015.9
20260905123633 69 248 1.0 3.0 0.00 0.06 0.06 99 1016.1
20260905123130 69 243 2.0 2.0 0.00 0.06 0.06 99 1015.9
20260905122629 69 263 3.0 3.0 0.00 0.06 0.06 99 1015.9
20260905122125 69 263 3.0 3.0 0.00 0.06 0.06 99 1015.8
20260905121619 69 249 2.0 2.0 0.00 0.06 0.06 99 1015.8
20260905121114 69 239 2.0 5.0 0.00 0.06 0.06 99 1015.7
20260905120614 69 238 3.0 3.0 0.00 0.06 0.06 99 1015.7
20260905120109 69 235 2.0 3.0 0.00 0.06 0.06 99 1015.7
20260905115608 69 237 1.0 2.0 0.00 0.06 0.06 99 1015.4
20260905115103 69 230 0.0 0.0 0.00 0.06 0.06 99 1015.5
20260905114602 69 224 0.0 1.0 0.00 0.06 0.06 99 1015.2
20260905114101 69 222 0.0 0.0 0.00 0.06 0.06 99 1015.0
20260905113556 69 222 0.0 0.0 0.00 0.06 0.06 99 1015.1
20260905113051 69 222 0.0 0.0 0.00 0.06 0.06 99 1015.2
20260905112546 69 231 0.0 0.0 0.00 0.06 0.06 99 1015.5
20260905112042 69 231 0.0 0.0 0.00 0.06 0.06 99 1015.4
20260905111537 69 228 0.0 0.0 0.00 0.06 0.06 99 1015.4
20260905111036 69 219 1.0 1.0 0.00 0.06 0.06 99 1015.1
20260905110536 69 227 0.0 0.0 0.00 0.06 0.06 99 1015.2
20260905110031 69 219 0.0 0.0 0.00 0.06 0.06 99 1015.2
20260905105530 69 220 0.0 0.0 0.00 0.06 0.06 99 1014.9
20260905105030 69 207 0.0 0.0 0.00 0.06 0.06 99 1015.0
20260905104526 69 158 0.0 2.0 0.00 0.06 0.06 99 1014.8
20260905104025 69 114 1.0 2.0 0.00 0.06 0.06 99 1014.9
20260905103521 69 173 1.0 1.0 0.00 0.06 0.06 99 1014.9
20260905103017 69 168 0.0 0.0 0.00 0.06 0.06 99 1014.8
20260905102512 69 164 0.0 1.0 0.00 0.06 0.06 99 1014.9
20260905102009 69 217 0.0 0.0 0.00 0.06 0.06 99 1015.2
20260905101507 69 216 0.0 0.0 0.00 0.06 0.06 99 1015.2
20260905101005 69 225 0.0 0.0 0.00 0.06 0.06 99 1015.6
20260905100502 69 235 0.0 0.0 0.00 0.06 0.06 99 1015.6
20260905100001 69 235 0.0 0.0 0.00 0.06 0.06 99 1015.5
20260905095456 69 245 1.0 1.0 0.00 0.06 0.06 99 1015.2
20260905094951 69 242 0.0 1.0 0.00 0.06 0.06 99 1015.6
20260905094446 69 247 2.0 2.0 0.00 0.06 0.06 99 1015.6
20260905093945 69 228 3.0 3.0 0.00 0.06 0.06 99 1015.6
20260905093440 69 232 2.0 3.0 0.00 0.06 0.06 99 1015.5
20260905092936 70 230 4.0 7.0 0.00 0.06 0.06 99 1015.7
20260905092431 71 217 3.0 5.0 0.00 0.06 0.06 99 1015.8
20260905091926 71 227 1.0 2.0 0.00 0.06 0.06 99 1016.0
20260905091421 71 234 2.0 3.0 0.00 0.06 0.06 99 1016.0
20260905090920 71 218 1.0 2.0 0.00 0.06 0.06 99 1015.9
20260905090416 71 203 1.0 1.0 0.00 0.06 0.06 99 1015.9
20260905085915 71 217 1.0 2.0 0.00 0.06 0.06 99 1015.9
20260905085414 71 224 0.0 0.0 0.00 0.06 0.06 99 1016.0
20260905084910 71 219 0.0 0.0 0.00 0.06 0.06 99 1015.9
20260905084409 71 237 0.0 0.0 0.00 0.06 0.06 99 1016.2
20260905083904 71 222 0.0 0.0 0.00 0.06 0.06 99 1016.1
20260905083400 71 226 2.0 2.0 0.00 0.06 0.06 99 1016.1
20260905082856 71 224 2.0 2.0 0.00 0.06 0.06 99 1016.1
20260905082352 71 229 1.0 2.0 0.00 0.06 0.06 99 1016.3
20260905081847 71 236 1.0 2.0 0.00 0.06 0.06 99 1016.0
20260905081342 71 215 3.0 3.0 0.00 0.06 0.06 99 1015.2
20260905080840 71 216 0.0 0.0 0.00 0.06 0.06 99 1014.6
20260905080341 71 249 0.0 0.0 0.00 0.06 0.06 99 1014.8
20260905075839 71 249 0.0 0.0 0.00 0.06 0.06 99 1014.4
20260905075334 71 249 0.0 0.0 0.00 0.06 0.06 99 1014.6
20260905074833 71 249 0.0 0.0 0.00 0.06 0.06 99 1014.8
20260905074329 71 235 0.0 0.0 0.00 0.06 0.06 99 1014.7
20260905073824 71 235 0.0 0.0 0.00 0.06 0.06 99 1014.4
20260905073319 72 215 0.0 0.0 0.00 0.06 0.06 99 1014.4
20260905072814 72 189 0.0 0.0 0.00 0.06 0.06 99 1014.7
20260905072309 72 189 0.0 0.0 0.00 0.06 0.06 99 1014.6
20260905071806 72 189 0.0 0.0 0.00 0.06 0.06 99 1014.6
20260905071301 72 148 0.0 0.0 0.00 0.06 0.06 99 1014.4
20260905070755 72 193 0.0 1.0 0.00 0.06 0.06 99 1013.8
20260905070252 72 229 0.0 0.0 0.00 0.06 0.06 99 1014.7
20260905065750 72 258 1.0 1.0 0.00 0.06 0.06 99 1014.8
20260905065244 72 248 1.0 1.0 0.00 0.06 0.06 99 1014.8
20260905064740 72 223 0.0 0.0 0.00 0.06 0.06 99 1014.6
20260905064235 72 94 0.0 2.0 0.00 0.06 0.06 99 1014.2
20260905063734 72 44 1.0 2.0 0.00 0.06 0.06 99 1013.9
20260905063230 72 207 0.0 0.0 0.00 0.06 0.06 99 1014.4
20260905062726 72 207 0.0 0.0 0.00 0.06 0.06 99 1014.7
20260905062225 72 207 0.0 0.0 0.00 0.06 0.06 99 1014.9
20260905061720 72 198 0.0 0.0 0.14 0.06 0.06 99 1014.5
20260905061215 72 86 2.0 2.0 0.28 0.05 0.05 99 1014.9
20260905060715 72 215 0.0 0.0 0.14 0.02 0.02 99 1014.6
20260905060212 72 295 0.0 0.0 0.00 0.00 0.00 99 1015.2
20260905055710 72 174 0.0 1.0 0.00 0.00 0.00 99 1015.1
20260905055205 72 215 0.0 0.0 0.00 0.00 0.00 99 1015.2
20260905054700 72 105 1.0 2.0 0.00 0.00 0.00 99 1015.2
20260905054157 72 134 0.0 0.0 0.00 0.00 0.00 99 1015.2
20260905053656 71 205 0.0 0.0 0.00 0.00 0.00 99 1015.2
20260905053151 72 202 0.0 0.0 0.00 0.00 0.00 99 1015.5
20260905052651 72 202 0.0 0.0 0.00 0.00 0.00 99 1015.4
20260905052146 72 198 0.0 0.0 0.00 0.00 0.00 99 1015.6
20260905051640 71 200 0.0 0.0 0.00 0.00 0.00 99 1015.6
20260905051137 72 198 0.0 0.0 0.00 0.00 0.00 99 1015.6
20260905050633 72 196 0.0 0.0 0.00 0.00 0.00 99 1015.6
20260905050130 72 195 0.0 0.0 0.00 0.00 0.00 99 1015.8
20260905045630 72 195 0.0 0.0 0.00 0.00 0.00 99 1015.7
20260905045125 72 194 0.0 0.0 0.00 0.00 0.00 99 1015.7
20260905044625 72 192 0.0 0.0 0.00 0.00 0.00 99 1015.8
20260905044120 72 191 0.0 0.0 0.00 0.00 0.00 99 1016.1
20260905043618 72 192 0.0 0.0 0.00 0.00 0.00 99 1016.0
20260905043114 73 178 0.0 0.0 0.00 0.00 0.00 99 1015.8
20260905042613 73 184 0.0 0.0 0.00 0.00 0.00 99 1015.7
20260905042108 73 137 0.0 0.0 0.00 0.00 0.00 99 1016.1
20260905041604 73 184 0.0 0.0 0.00 0.00 0.00 99 1016.0
20260905041059 73 193 0.0 0.0 0.00 0.00 0.00 99 1016.2
20260905040559 73 193 0.0 0.0 0.00 0.00 0.00 99 1016.2
20260905040057 73 192 0.0 0.0 0.00 0.00 0.00 99 1016.4
20260905035553 73 188 0.0 0.0 0.00 1.16 1.16 99 1016.3
20260905035049 73 190 0.0 0.0 0.00 1.16 1.16 99 1016.5
20260905034545 73 188 0.0 0.0 0.00 1.16 1.16 99 1016.2
20260905034044 73 191 0.0 1.0 0.00 1.16 1.16 99 1016.3
20260905033538 72 206 0.0 0.0 0.00 1.16 1.16 99 1016.4
20260905033035 72 207 0.0 0.0 0.00 1.16 1.16 99 1016.4
20260905032535 72 207 0.0 0.0 0.00 1.16 1.16 99 1016.5
20260905032030 72 205 0.0 0.0 0.00 1.16 1.16 99 1016.6
20260905031526 72 214 0.0 0.0 0.00 1.16 1.16 99 1016.5
20260905031025 72 212 0.0 0.0 0.00 1.16 1.16 99 1016.6
20260905030521 72 160 0.0 0.0 0.00 1.16 1.16 99 1016.4
20260905030021 72 205 0.0 0.0 0.00 1.16 1.16 99 1016.2
20260905025516 71 220 0.0 0.0 0.00 1.16 1.16 99 1016.2
20260905025012 72 220 0.0 0.0 0.00 1.16 1.16 99 1016.3
20260905024507 72 214 0.0 0.0 0.00 1.16 1.16 99 1016.1
20260905024002 73 209 0.0 0.0 0.00 1.16 1.16 99 1016.0
20260905023457 73 209 0.0 0.0 0.00 1.16 1.16 99 1016.1
20260905022956 73 182 0.0 0.0 0.00 1.16 1.16 98 1016.1
20260905022451 73 223 0.0 0.0 0.00 1.16 1.16 98 1016.2
20260905021947 73 221 0.0 0.0 0.00 1.16 1.16 98 1016.1
20260905021446 73 213 0.0 0.0 0.00 1.16 1.16 98 1016.1
20260905020941 73 213 0.0 0.0 0.00 1.16 1.16 98 1016.0
20260905020436 73 217 0.0 0.0 0.00 1.16 1.16 98 1016.0
20260905015936 73 217 0.0 0.0 0.00 1.16 1.16 98 1016.1
20260905015434 73 218 0.0 0.0 0.00 1.16 1.16 98 1016.3
20260905014933 73 218 0.0 0.0 0.00 1.16 1.16 97 1016.2
20260905014429 73 218 0.0 0.0 0.00 1.16 1.16 97 1016.1
20260905013924 73 217 0.0 0.0 0.00 1.16 1.16 97 1016.1
20260905013421 74 216 0.0 0.0 0.00 1.16 1.16 97 1016.1
20260905012916 74 211 0.0 0.0 0.00 1.16 1.16 97 1016.2
20260905012411 74 225 0.0 0.0 0.00 1.16 1.16 96 1016.2
20260905011908 74 225 0.0 0.0 0.00 1.16 1.16 96 1016.3
20260905011403 74 225 0.0 0.0 0.00 1.16 1.16 96 1016.2
20260905010858 74 225 0.0 0.0 0.00 1.16 1.16 96 1016.4
20260905010353 74 225 0.0 0.0 0.00 1.16 1.16 96 1016.3
20260905005850 74 225 0.0 0.0 0.00 1.16 1.16 96 1016.1
20260905005345 74 225 0.0 0.0 0.00 1.16 1.16 95 1016.4
20260905004840 74 225 0.0 0.0 0.00 1.16 1.16 95 1016.4
20260905004340 75 224 0.0 0.0 0.00 1.16 1.16 94 1016.2
20260905003835 75 224 0.0 0.0 0.00 1.16 1.16 94 1016.1
20260905003331 75 224 0.0 0.0 0.00 1.16 1.16 93 1015.9
20260905002827 76 224 0.0 0.0 0.00 1.16 1.16 93 1016.1
20260905002326 76 224 0.0 0.0 0.00 1.16 1.16 93 1016.2
20260905001821 76 224 0.0 0.0 0.00 1.16 1.16 92 1016.1
20260905001321 76 224 0.0 0.0 0.00 1.16 1.16 92 1015.9
20260905000817 77 225 0.0 0.0 0.00 1.16 1.16 91 1016.2
20260905000312 77 221 0.0 0.0 0.00 1.16 1.16 90 1016.1
20260904235807 78 216 0.0 0.0 0.00 1.16 1.16 89 1016.0
20260904235305 78 216 0.0 0.0 0.00 1.16 1.16 89 1016.1
20260904234756 78 216 0.0 0.0 0.00 1.16 1.16 89 1016.1
20260904234252 78 215 0.0 0.0 0.00 1.16 1.16 88 1016.0
20260904233747 79 210 0.0 0.0 0.00 1.16 1.16 86 1016.2
20260904233244 80 209 0.0 0.0 0.00 1.16 1.16 86 1016.1
20260904232740 80 207 0.0 0.0 0.00 1.16 1.16 85 1016.1
20260904232236 80 203 0.0 0.0 0.00 1.16 1.16 84 1016.0
20260904231731 82 228 0.0 0.0 0.00 1.16 1.16 81 1016.0
20260904231227 82 239 0.0 0.0 0.00 1.16 1.16 78 1016.1
20260904230726 81 226 0.0 0.0 0.00 1.16 1.16 80 1016.0
20260904230221 81 222 0.0 0.0 0.00 1.16 1.16 81 1016.0
20260904225720 81 206 0.0 1.0 0.00 1.16 1.16 82 1015.9
20260904225214 80 182 1.0 1.0 0.00 1.16 1.16 81 1015.8
20260904224713 80 85 1.0 1.0 0.00 1.16 1.16 82 1015.6
20260904224209 80 70 1.0 3.0 0.00 1.16 1.16 82 1015.4
20260904223708 80 183 0.0 1.0 0.00 1.16 1.16 83 1015.6
20260904223203 80 184 0.0 0.0 0.00 1.16 1.16 84 1015.2
20260904222658 80 181 1.0 2.0 0.00 1.16 1.16 85 1015.5
20260904222154 80 233 0.0 1.0 0.00 1.16 1.16 85 1015.2
20260904221653 80 196 1.0 2.0 0.00 1.16 1.16 84 1015.2
20260904221149 80 241 0.0 0.0 0.00 1.16 1.16 84 1015.5
20260904220644 80 241 0.0 1.0 0.00 1.16 1.16 85 1015.5
20260904220139 80 5 1.0 2.0 0.00 1.16 1.16 84 1015.7
20260904215633 80 269 0.0 1.0 0.00 1.16 1.16 83 1015.7
20260904215129 80 250 0.0 1.0 0.00 1.16 1.16 83 1015.8
20260904214629 80 288 1.0 2.0 0.00 1.16 1.16 83 1015.8
20260904214125 79 247 0.0 0.0 0.00 1.16 1.16 84 1015.6
20260904213623 79 240 0.0 1.0 0.00 1.16 1.16 84 1015.4
20260904213120 79 159 1.0 2.0 0.00 1.16 1.16 85 1015.2
20260904212620 78 149 0.0 1.0 0.00 1.16 1.16 85 1015.1
20260904212115 78 261 0.0 1.0 0.00 1.16 1.16 87 1015.2
20260904211614 78 81 1.0 3.0 0.00 1.16 1.16 86 1015.4
20260904211110 78 125 1.0 2.0 0.00 1.16 1.16 86 1015.2
20260904210610 78 72 1.0 2.0 0.00 1.16 1.16 87 1015.4
20260904210105 77 57 1.0 3.0 0.00 1.16 1.16 88 1015.4
20260904205601 77 74 3.0 5.0 0.00 1.16 1.16 87 1015.1
20260904205057 78 232 0.0 1.0 0.00 1.16 1.16 87 1015.5
20260904204553 77 310 1.0 2.0 0.00 1.16 1.16 88 1015.7
20260904204048 77 269 0.0 2.0 0.00 1.16 1.16 88 1015.5
20260904203544 77 267 1.0 1.0 0.00 1.16 1.16 89 1015.5
20260904203041 77 325 1.0 2.0 0.00 1.16 1.16 89 1015.7
20260904202536 77 308 1.0 2.0 0.00 1.16 1.16 89 1015.4
20260904202032 78 288 1.0 2.0 0.00 1.16 1.16 89 1015.0
20260904201527 78 326 3.0 3.0 0.00 1.16 1.16 89 1015.5
20260904201022 78 30 2.0 2.0 0.00 1.16 1.16 88 1014.8
20260904200521 78 79 1.0 1.0 0.00 1.16 1.16 88 1014.0
20260904200017 78 294 1.0 1.0 0.00 1.16 1.16 88 1014.2
20260904195515 79 43 1.0 1.0 0.00 1.16 1.16 88 1013.9
20260904195014 79 217 0.0 1.0 0.00 1.16 1.16 86 1013.3
20260904194509 79 186 1.0 2.0 0.00 1.16 1.16 85 1013.5
20260904194004 79 198 1.0 2.0 0.00 1.16 1.16 85 1013.8
20260904193459 79 209 0.0 2.0 0.00 1.16 1.16 85 1014.2
20260904192955 79 213 0.0 1.0 0.00 1.16 1.16 85 1014.4
20260904192454 79 212 0.0 0.0 0.00 1.16 1.16 85 1014.7
20260904191951 79 217 2.0 2.0 0.00 1.16 1.16 85 1014.9
20260904191447 78 237 2.0 2.0 0.00 1.16 1.16 86 1015.4
20260904190943 78 228 2.0 5.0 0.00 1.16 1.16 86 1015.8
20260904190438 78 240 3.0 6.0 0.00 1.16 1.16 87 1016.0
20260904185935 78 228 3.0 6.0 0.00 1.16 1.16 86 1016.4
20260904185431 77 226 2.0 5.0 0.00 1.16 1.16 87 1016.4
20260904184930 77 225 2.0 5.0 0.00 1.16 1.16 87 1016.4
20260904184425 77 237 2.0 6.0 0.00 1.16 1.16 88 1016.1
20260904183920 76 222 4.0 7.0 0.00 1.16 1.16 89 1016.2
20260904183415 76 223 4.0 10.0 0.00 1.16 1.16 89 1016.2
20260904182911 75 216 5.0 8.0 0.00 1.16 1.16 91 1016.4
20260904182406 74 206 6.0 9.0 0.00 1.16 1.16 93 1016.1
20260904181901 74 201 6.0 9.0 0.00 1.16 1.16 94 1016.1
20260904181356 73 229 7.0 10.0 0.00 1.16 1.16 96 1016.0